星链-30246 (STARLINK-30246 )

导读

STARLINK-30246是美国SpaceX公司星链(Starlink)低轨卫星互联网星座的一员,于2023年8月11日发射入轨。作为星链组网卫星,它服务全球高速低延迟互联网接入,尤其支持偏远地区覆盖与特殊场景通信。该卫星属于星链V1.5或V2 Mini批次,配备霍尔推进器和自主避撞系统,设计寿命5-7年,离轨后会再入大气层烧毁。它的入轨进一步扩充了星链星座的全球覆盖能力,推动SpaceX构建全球卫星互联网的进程。

Basic Information
目录编号:
57615
目录名称:
STARLINK-30246
国际标识:
2023-119P
轨道中心:
EARTH
卫星名称:
星链-30246
卫星全名:
星链-30246 (STARLINK-30246 )
卫星状态:
在轨 (已飞行1042 天)
发射日期:
2023-08-11 UTC
国别 :
美国 (US)
星等 :
--
Orbit Information
数据来源 国际轨道数据 AOE轨道数据
星历时间 2026-06-18T13:31:48+0800
8小时前
查看轨道信息
2026-06-17T06:00:00+0800
1天前
查看轨道信息
半长轴 6861.199km 6861.172km
偏心率 0.0001504 0.0000031
轨道倾角 43.003° 43.001°
近地点辐角 259.877° 149.370°
升交点赤经 233.685° 241.103°
平近点角 100.191° 177.607°
近地点 482.03km 483.013km
远地点 484.094km 483.057km
周期 94.267分钟 94.266分钟
每日圈数 15.275759 15.275848
Detailed Information
固有亮度:
5
最大亮度:
0.3
卫星平台:
Starlink v2.0 mini
覆盖范围:
全球
运营商:
太空探索技术公司
运营商所在国:
美国
制造商(研发单位):
太空探索技术公司
制造商所在国:
美国
使用方式:
暂无
Satellite Introduction
星链(Starlink)计划是由太空探索技术公司(SpaceX)提出的一个巨型低轨卫星互联网星座项目,计划在2019年至2024年间在太空搭建由约1.2万颗卫星组成的“星链”网络,其中1584颗将部署在地球上空550千米处的近地轨道,并从2020年开始工作。该卫星仍在工作。
2D Orbit Map
3D Orbit Map
Orbit Altitude Analysis Chart
Orbit Inclination Analysis Chart
Orbit Comprehensive Analysis Chart
View Comprehensive Chart